Location: Unspecified
(0.0000°N, 0.0000°E)
Time: 04:21:20
(UTC+01:00)

GPS 2-15 Rocket1 - Visible Passes

Search period start: 18 February 2018 00:00
Search period end: 28 February 2018 00:00
Orbit: 624 x 676 km, 19.8° (Epoch: 17 February)

Date Brightness Start Highest point End Pass type
(mag) Time Alt. Az. Time Alt. Az. Time Alt. Az.
18 Feb 5.2 05:32:33 16° N 05:32:33 16° N 05:34:16 10° NNE visible
19 Feb 5.3 05:57:21 12° NNW 05:57:21 12° NNW 05:59:17 10° N visible
22 Feb 5.7 21:13:58 10° SSW 21:14:48 12° S 21:14:48 12° S visible
23 Feb 6.0 21:39:01 10° SSW 21:39:20 11° SSW 21:39:20 11° SSW visible
24 Feb 5.4 20:22:08 10° SSW 20:24:23 13° SSE 20:26:15 11° SE visible
25 Feb 4.9 20:47:16 10° SSW 20:50:49 21° SSE 20:50:49 21° SSE visible
26 Feb 4.9 21:12:51 10° SW 21:15:26 26° SSW 21:15:26 26° SSW visible
27 Feb 4.8 19:55:31 10° SSW 19:59:14 22° SSE 20:02:26 12° ESE visible
27 Feb 5.7 21:38:47 10° WSW 21:40:05 18° WSW 21:40:05 18° WSW visible
